When you browse on this site, cookies collect data to enhance your experience and personalize the content and advertising you see.
Visit our Privacy Policy to learn more. By continuing to use the site, you agree to this use of cookies and data.
  • Em Portugal
  • Lista de países
  • Para 7 dias
  • Temperatura da água
  • Mapa do tempo
  • Widgets de tempo
  • user-avatar
    Iniciar Sessão

    Previsão horária em Mishutino

    Hoje, 26 Agosto, Segunda-feira

    Tempo Temperatura Precipitação Vento Pressão Humidade
    00:00 +11°C° 0 mm 1 m/s 754 mmHg 94%
    01:00 +11°C° 0 mm 1 m/s 754 mmHg 95%
    02:00 +10°C° 0 mm 2 m/s 755 mmHg 95%
    03:00 +10°C° 0 mm 2 m/s 754 mmHg 96%
    04:00 +9°C° 0 mm 2 m/s 754 mmHg 96%
    05:00 +9°C° 0 mm 2 m/s 754 mmHg 97%
    06:00 +12°C° 0 mm 2 m/s 754 mmHg 90%
    07:00 +14°C° 0 mm 2 m/s 753 mmHg 83%
    08:00 +16°C° 0 mm 2 m/s 753 mmHg 76%
    09:00 +17°C° 0 mm 3 m/s 753 mmHg 70%
    10:00 +19°C° 0 mm 3 m/s 752 mmHg 65%
    11:00 +20°C° 0 mm 4 m/s 752 mmHg 59%
    12:00 +21°C° 0 mm 4 m/s 752 mmHg 58%
    13:00 +21°C° 0 mm 4 m/s 751 mmHg 57%
    14:00 +21°C° 0 mm 4 m/s 751 mmHg 56%
    15:00 +21°C° 0 mm 4 m/s 750 mmHg 61%
    16:00 +20°C° 0 mm 3 m/s 750 mmHg 66%
    17:00 +19°C° 0 mm 3 m/s 749 mmHg 70%
    18:00 +19°C° 0 mm 3 m/s 749 mmHg 72%
    19:00 +18°C° 0 mm 3 m/s 748 mmHg 74%
    20:00 +17°C° 0 mm 3 m/s 748 mmHg 76%
    21:00 +17°C° 0.2 mm 3 m/s 748 mmHg 81%
    22:00 +16°C° 0.2 mm 3 m/s 748 mmHg 86%
    23:00 +16°C° 0.2 mm 3 m/s 747 mmHg 91%

    Amanhã, 27 Agosto, Terça-feira

    Tempo Temperatura Precipitação Vento Pressão Humidade
    00:00 +16°C° 0 mm 3 m/s 748 mmHg 92%
    01:00 +14°C° 0 mm 3 m/s 748 mmHg 93%
    02:00 +14°C° 0 mm 3 m/s 748 mmHg 95%
    03:00 +13°C° 0 mm 3 m/s 748 mmHg 95%
    04:00 +13°C° 0 mm 3 m/s 748 mmHg 96%
    05:00 +12°C° 0 mm 3 m/s 748 mmHg 96%
    06:00 +13°C° 0 mm 3 m/s 748 mmHg 91%
    07:00 +14°C° 0 mm 3 m/s 749 mmHg 85%
    08:00 +15°C° 0 mm 4 m/s 749 mmHg 80%
    09:00 +17°C° 0 mm 4 m/s 749 mmHg 73%
    10:00 +18°C° 0 mm 4 m/s 749 mmHg 67%
    11:00 +19°C° 0 mm 4 m/s 749 mmHg 61%
    12:00 +19°C° 0 mm 4 m/s 750 mmHg 59%
    13:00 +20°C° 0 mm 4 m/s 750 mmHg 57%
    14:00 +20°C° 0 mm 4 m/s 750 mmHg 55%
    15:00 +19°C° 0 mm 4 m/s 750 mmHg 59%
    16:00 +19°C° 0 mm 3 m/s 750 mmHg 63%
    17:00 +18°C° 0 mm 3 m/s 750 mmHg 67%
    18:00 +16°C° 0 mm 3 m/s 751 mmHg 74%
    19:00 +14°C° 0 mm 2 m/s 751 mmHg 81%
    20:00 +12°C° 0 mm 2 m/s 751 mmHg 87%
    21:00 +10°C° 0 mm 2 m/s 752 mmHg 88%
    22:00 +10°C° 0 mm 2 m/s 752 mmHg 89%
    23:00 +9°C° 0 mm 2 m/s 752 mmHg 89%

    Depois de amanhã, 28 Agosto, Quarta-feira

    Tempo Temperatura Precipitação Vento Pressão Humidade
    00:00 +8°C° 0 mm 2 m/s 753 mmHg 91%
    01:00 +8°C° 0 mm 2 m/s 753 mmHg 92%
    02:00 +8°C° 0 mm 2 m/s 753 mmHg 93%
    03:00 +7°C° 0 mm 2 m/s 753 mmHg 94%
    04:00 +8°C° 0 mm 1 m/s 754 mmHg 95%
    05:00 +8°C° 0 mm 1 m/s 754 mmHg 95%
    06:00 +8°C° 0 mm 2 m/s 754 mmHg 86%
    07:00 +10°C° 0 mm 2 m/s 755 mmHg 76%
    08:00 +13°C° 0 mm 2 m/s 755 mmHg 67%
    09:00 +14°C° 0 mm 2 m/s 755 mmHg 60%
    10:00 +15°C° 0 mm 2 m/s 755 mmHg 53%
    11:00 +16°C° 0 mm 2 m/s 755 mmHg 46%
    12:00 +17°C° 0 mm 2 m/s 755 mmHg 45%
    13:00 +17°C° 0 mm 2 m/s 755 mmHg 45%
    14:00 +18°C° 0 mm 2 m/s 755 mmHg 45%
    15:00 +19°C° 0 mm 1 m/s 754 mmHg 50%
    16:00 +18°C° 0 mm 1 m/s 754 mmHg 56%
    17:00 +18°C° 0 mm 1 m/s 754 mmHg 62%
    18:00 +14°C° 0 mm 0 m/s 754 mmHg 66%
    19:00 +12°C° 0 mm 0 m/s 754 mmHg 70%
    20:00 +10°C° 0 mm 0 m/s 754 mmHg 74%
    21:00 +11°C° 0 mm 1 m/s 754 mmHg 75%
    22:00 +11°C° 0 mm 1 m/s 754 mmHg 77%
    23:00 +11°C° 0 mm 1 m/s 754 mmHg 78%

    29 Agosto, Quinta-feira

    Tempo Temperatura Precipitação Vento Pressão Humidade
    00:00 +10°C° 0 mm 1 m/s 754 mmHg 81%
    01:00 +10°C° 0 mm 1 m/s 754 mmHg 84%
    02:00 +9°C° 0 mm 2 m/s 754 mmHg 86%
    03:00 +9°C° 0 mm 2 m/s 754 mmHg 88%
    04:00 +9°C° 0 mm 2 m/s 754 mmHg 90%
    05:00 +9°C° 0 mm 2 m/s 754 mmHg 92%
    06:00 +12°C° 0 mm 2 m/s 754 mmHg 85%
    07:00 +14°C° 0 mm 2 m/s 754 mmHg 79%
    08:00 +16°C° 0 mm 2 m/s 754 mmHg 73%
    09:00 +17°C° 0 mm 2 m/s 754 mmHg 67%
    10:00 +19°C° 0 mm 2 m/s 754 mmHg 62%
    11:00 +20°C° 0 mm 3 m/s 754 mmHg 56%
    12:00 +21°C° 0 mm 3 m/s 753 mmHg 55%
    13:00 +22°C° 0 mm 3 m/s 753 mmHg 53%
    14:00 +22°C° 0 mm 3 m/s 752 mmHg 52%
    15:00 +23°C° 0 mm 2 m/s 752 mmHg 57%
    16:00 +21°C° 0 mm 2 m/s 752 mmHg 63%
    17:00 +21°C° 0 mm 1 m/s 751 mmHg 68%
    18:00 +19°C° 0 mm 1 m/s 751 mmHg 73%
    19:00 +16°C° 0 mm 2 m/s 751 mmHg 79%
    20:00 +15°C° 0 mm 2 m/s 751 mmHg 84%
    21:00 +14°C° 0 mm 2 m/s 751 mmHg 84%
    22:00 +14°C° 0 mm 1 m/s 751 mmHg 84%
    23:00 +13°C° 0 mm 1 m/s 751 mmHg 84%

    30 Agosto, Sexta-feira

    Tempo Temperatura Precipitação Vento Pressão Humidade
    00:00 +13°C° 0 mm 1 m/s 751 mmHg 83%
    01:00 +13°C° 0 mm 1 m/s 750 mmHg 83%
    02:00 +13°C° 0 mm 1 m/s 750 mmHg 83%
    03:00 +12°C° 0 mm 1 m/s 750 mmHg 83%
    04:00 +12°C° 0 mm 1 m/s 750 mmHg 84%
    05:00 +12°C° 0 mm 1 m/s 750 mmHg 85%
    06:00 +13°C° 0 mm 1 m/s 750 mmHg 79%
    07:00 +15°C° 0 mm 1 m/s 750 mmHg 74%
    08:00 +16°C° 0 mm 1 m/s 750 mmHg 69%
    09:00 +19°C° 0 mm 1 m/s 750 mmHg 63%
    10:00 +21°C° 0 mm 1 m/s 750 mmHg 57%
    11:00 +22°C° 0 mm 1 m/s 751 mmHg 52%
    12:00 +23°C° 0 mm 1 m/s 750 mmHg 51%
    13:00 +23°C° 0 mm 1 m/s 750 mmHg 50%
    14:00 +23°C° 0 mm 1 m/s 750 mmHg 49%
    15:00 +22°C° 0 mm 1 m/s 750 mmHg 55%
    16:00 +22°C° 0 mm 1 m/s 749 mmHg 61%
    17:00 +21°C° 0 mm 1 m/s 749 mmHg 67%
    18:00 +19°C° 0 mm 1 m/s 749 mmHg 72%
    19:00 +16°C° 0 mm 1 m/s 749 mmHg 77%
    20:00 +14°C° 0 mm 1 m/s 749 mmHg 83%
    21:00 +14°C° 0 mm 1 m/s 749 mmHg 84%
    22:00 +13°C° 0 mm 1 m/s 749 mmHg 86%
    23:00 +13°C° 0 mm 1 m/s 749 mmHg 88%

    31 Agosto, Sábado

    Tempo Temperatura Precipitação Vento Pressão Humidade
    00:00 +12°C° 0 mm 1 m/s 749 mmHg 89%
    01:00 +12°C° 0 mm 1 m/s 749 mmHg 89%
    02:00 +11°C° 0 mm 1 m/s 748 mmHg 89%
    03:00 +11°C° 0 mm 1 m/s 748 mmHg 90%
    04:00 +11°C° 0 mm 1 m/s 748 mmHg 90%
    05:00 +11°C° 0 mm 1 m/s 748 mmHg 90%
    06:00 +13°C° 0 mm 1 m/s 748 mmHg 85%
    07:00 +14°C° 0 mm 1 m/s 748 mmHg 79%
    08:00 +16°C° 0 mm 1 m/s 748 mmHg 73%
    09:00 +19°C° 0 mm 1 m/s 748 mmHg 67%
    10:00 +20°C° 0 mm 1 m/s 748 mmHg 62%
    11:00 +22°C° 0 mm 1 m/s 748 mmHg 56%
    12:00 +22°C° 0 mm 1 m/s 747 mmHg 55%
    13:00 +23°C° 0 mm 1 m/s 747 mmHg 54%
    14:00 +24°C° 0 mm 1 m/s 747 mmHg 52%
    15:00 +23°C° 0 mm 1 m/s 747 mmHg 58%
    16:00 +23°C° 0 mm 1 m/s 746 mmHg 63%
    17:00 +22°C° 0 mm 1 m/s 746 mmHg 69%
    18:00 +20°C° 0 mm 1 m/s 746 mmHg 74%
    19:00 +19°C° 0 mm 1 m/s 746 mmHg 80%
    20:00 +16°C° 0 mm 1 m/s 746 mmHg 85%
    21:00 +15°C° 0 mm 1 m/s 746 mmHg 88%
    22:00 +15°C° 0 mm 1 m/s 746 mmHg 91%
    23:00 +15°C° 0 mm 1 m/s 746 mmHg 93%
    Mostrar mais